LPE2694 SPJC-KMIA

Flight info

Callsign LPE2694
Flight time N/A
Altitude 35000
Route TISLI2 ILROL UM795 LOBOT/N0492F360 UM795 BOKAN/N0496F350 UM795 PML/N0491F370 UM795 COLBY/N0492F360 DCT NIBEO/N0491F370 DCT ALTIB/N0488F380 UM779 ZEUSS VIICE2
Aircraft B77W/H-HSDE1E2E3FGHIJ2J3J4J5M1RWXY/LB1D1

Departure

Time 2026-04-29 20:25
Airport Jorge Chávez International Airport (SPJC)

Arrival

Time N/A
Airport Miami International Airport (KMIA)
Time Latitude Longitude Altitude Speed Heading
2026-04-29 20:06 -12.02714 -77.11854 89 ft 0 kts 64°
2026-04-29 20:13 -12.02717 -77.11859 88 ft 4 kts 63°
2026-04-29 20:13 -12.02725 -77.11875 90 ft 4 kts 58°
2026-04-29 20:13 -12.02747 -77.11904 90 ft 4 kts 43°
2026-04-29 20:13 -12.02768 -77.11920 90 ft 4 kts 15°
2026-04-29 20:14 -12.02787 -77.11920 89 ft 1 kts 335°
2026-04-29 20:18 -12.02785 -77.11922 89 ft 2 kts 335°
2026-04-29 20:18 -12.02730 -77.11949 88 ft 16 kts 334°
2026-04-29 20:18 -12.02610 -77.12008 87 ft 20 kts 334°
2026-04-29 20:19 -12.02568 -77.12091 69 ft 17 kts 247°
2026-04-29 20:19 -12.02569 -77.12197 61 ft 13 kts 324°
2026-04-29 20:19 -12.02482 -77.12232 60 ft 13 kts 338°
2026-04-29 20:19 -12.02380 -77.12279 57 ft 22 kts 335°
2026-04-29 20:20 -12.02233 -77.12353 53 ft 20 kts 335°
2026-04-29 20:20 -12.02122 -77.12393 52 ft 14 kts
2026-04-29 20:20 -12.02066 -77.12316 50 ft 14 kts 62°
2026-04-29 20:20 -12.02038 -77.12257 51 ft 14 kts 64°
2026-04-29 20:21 -12.01981 -77.12140 55 ft 23 kts 62°
2026-04-29 20:21 -12.01910 -77.11991 61 ft 23 kts 65°
2026-04-29 20:21 -12.01842 -77.11845 62 ft 18 kts 64°
2026-04-29 20:21 -12.01736 -77.11830 61 ft 18 kts 337°
2026-04-29 20:22 -12.01590 -77.11910 66 ft 18 kts 332°
2026-04-29 20:22 -12.01514 -77.11949 60 ft 18 kts 335°
2026-04-29 20:22 -12.01385 -77.12010 58 ft 24 kts 336°
2026-04-29 20:22 -12.01251 -77.12100 56 ft 24 kts 303°
2026-04-29 20:23 -12.01127 -77.12206 55 ft 24 kts 332°
2026-04-29 20:23 -12.00977 -77.12276 52 ft 24 kts 336°
2026-04-29 20:23 -12.00864 -77.12306 51 ft 15 kts 20°
2026-04-29 20:23 -12.00807 -77.12216 50 ft 15 kts 64°
2026-04-29 20:24 -12.00783 -77.12129 52 ft 11 kts 115°
2026-04-29 20:24 -12.00837 -77.12098 51 ft 16 kts 154°
2026-04-29 20:24 -12.01072 -77.11979 54 ft 73 kts 154°
2026-04-29 20:24 -12.01808 -77.11620 61 ft 159 kts 154°
2026-04-29 20:25 -12.02985 -77.11032 369 ft 200 kts 156°
2026-04-29 20:25 -12.04202 -77.10431 1380 ft 193 kts 155°
2026-04-29 20:25 -12.05430 -77.09822 2148 ft 203 kts 155°
2026-04-29 20:25 -12.06796 -77.09151 2412 ft 234 kts 155°
2026-04-29 20:26 -12.08347 -77.08388 2840 ft 256 kts 154°
2026-04-29 20:26 -12.10056 -77.07800 3484 ft 266 kts 178°
2026-04-29 20:26 -12.11857 -77.08238 4252 ft 272 kts 213°
2026-04-29 20:26 -12.13129 -77.09636 5156 ft 272 kts 245°
2026-04-29 20:27 -12.13635 -77.11486 5992 ft 273 kts 270°
2026-04-29 20:27 -12.13536 -77.12771 6514 ft 275 kts 284°
2026-04-29 20:27 -12.12451 -77.15103 7526 ft 278 kts 306°
2026-04-29 20:27 -12.11259 -77.16673 8328 ft 280 kts 314°
2026-04-29 20:28 -12.09637 -77.17791 8935 ft 287 kts 345°
2026-04-29 20:28 -12.07656 -77.17880 9777 ft 288 kts
2026-04-29 20:28 -12.05651 -77.17518 10339 ft 298 kts
2026-04-29 20:28 -12.03519 -77.17163 10573 ft 324 kts
2026-04-29 20:29 -12.01199 -77.16862 10770 ft 349 kts
2026-04-29 20:29 -11.98697 -77.16634 10958 ft 372 kts
2026-04-29 20:29 -11.96064 -77.16722 11450 ft 385 kts 355°
2026-04-29 20:29 -11.93369 -77.16976 12138 ft 391 kts 354°
2026-04-29 20:30 -11.90646 -77.17238 12898 ft 395 kts 354°
2026-04-29 20:30 -11.87891 -77.17501 13611 ft 400 kts 355°
2026-04-29 20:30 -11.85134 -77.17760 14250 ft 405 kts 355°
2026-04-29 20:30 -11.82313 -77.18020 14927 ft 408 kts 355°
2026-04-29 20:31 -11.79468 -77.18280 15627 ft 411 kts 355°
2026-04-29 20:31 -11.76609 -77.18538 16299 ft 414 kts 356°
2026-04-29 20:31 -11.73717 -77.18797 16945 ft 418 kts 355°
2026-04-29 20:31 -11.70803 -77.19058 17578 ft 422 kts 356°
2026-04-29 20:32 -11.67868 -77.19321 18227 ft 426 kts 356°
2026-04-29 20:32 -11.64895 -77.19587 18761 ft 430 kts 356°
2026-04-29 20:32 -11.61895 -77.19854 19246 ft 435 kts 356°
2026-04-29 20:32 -11.58898 -77.20122 19744 ft 441 kts 356°
2026-04-29 20:33 -11.55820 -77.20397 20242 ft 445 kts 356°
2026-04-29 20:33 -11.52724 -77.20673 20754 ft 449 kts 355°
2026-04-29 20:33 -11.49587 -77.20954 21245 ft 454 kts 355°
2026-04-29 20:33 -11.46419 -77.21238 21727 ft 459 kts 355°
2026-04-29 20:34 -11.43208 -77.21524 22241 ft 463 kts 355°
2026-04-29 20:34 -11.39989 -77.21812 22767 ft 466 kts 355°
2026-04-29 20:34 -11.36744 -77.22102 23235 ft 470 kts 355°
2026-04-29 20:34 -11.33505 -77.22391 23660 ft 474 kts 355°
2026-04-29 20:35 -11.30211 -77.22685 24140 ft 476 kts 355°
2026-04-29 20:35 -11.26903 -77.22981 24586 ft 476 kts 354°
2026-04-29 20:35 -11.23610 -77.23277 25116 ft 476 kts 354°
2026-04-29 20:35 -11.20311 -77.23571 25678 ft 474 kts 354°
2026-04-29 20:36 -11.17023 -77.23862 26197 ft 474 kts 354°
2026-04-29 20:36 -11.13734 -77.24155 26665 ft 475 kts 354°
2026-04-29 20:36 -11.10431 -77.24449 27029 ft 478 kts 354°
2026-04-29 20:36 -11.07104 -77.24745 27414 ft 481 kts 354°
2026-04-29 20:37 -11.03774 -77.25043 27825 ft 482 kts 354°
2026-04-29 20:37 -11.00427 -77.25340 28276 ft 481 kts 354°
2026-04-29 20:37 -10.97087 -77.25637 28693 ft 482 kts 353°
2026-04-29 20:37 -10.93783 -77.25932 29060 ft 484 kts 353°
2026-04-29 20:38 -10.90390 -77.26235 29398 ft 485 kts 353°
2026-04-29 20:38 -10.87052 -77.26533 29730 ft 487 kts 353°
2026-04-29 20:38 -10.83684 -77.26831 30097 ft 486 kts 353°
2026-04-29 20:38 -10.80311 -77.27129 30504 ft 485 kts 353°
2026-04-29 20:39 -10.76954 -77.27428 30882 ft 484 kts 353°
2026-04-29 20:39 -10.73605 -77.27727 31251 ft 483 kts 353°
2026-04-29 20:39 -10.70263 -77.28025 31633 ft 481 kts 353°
2026-04-29 20:39 -10.66926 -77.28321 32022 ft 480 kts 353°
2026-04-29 20:40 -10.63645 -77.28612 32362 ft 480 kts 353°
2026-04-29 20:40 -10.60322 -77.28907 32730 ft 479 kts 353°
2026-04-29 20:40 -10.56999 -77.29202 33122 ft 477 kts 353°
2026-04-29 20:40 -10.53687 -77.29497 33508 ft 476 kts 353°
2026-04-29 20:41 -10.50402 -77.29784 33917 ft 474 kts 354°
2026-04-29 20:41 -10.47098 -77.30004 33998 ft 477 kts 355°
2026-04-29 20:41 -10.40485 -77.30303 34052 ft 476 kts 356°
2026-04-29 20:42 -10.33836 -77.30577 34042 ft 474 kts 356°
2026-04-29 20:42 -10.27294 -77.30876 34088 ft 474 kts 356°
2026-04-29 20:43 -10.20699 -77.31196 34098 ft 474 kts 356°
2026-04-29 20:43 -10.14086 -77.31521 34150 ft 476 kts 356°
2026-04-29 20:44 -10.07450 -77.31847 34150 ft 477 kts 356°
2026-04-29 20:44 -10.00806 -77.32171 34179 ft 478 kts 356°
2026-04-29 20:45 -9.94187 -77.32494 34172 ft 479 kts 356°
2026-04-29 20:45 -9.87501 -77.32820 34200 ft 480 kts 356°
2026-04-29 20:46 -9.80847 -77.33144 34200 ft 481 kts 356°
2026-04-29 20:46 -9.74149 -77.33470 34203 ft 481 kts 356°
2026-04-29 20:47 -9.67453 -77.33796 34204 ft 481 kts 356°
2026-04-29 20:47 -9.60752 -77.34121 34200 ft 481 kts 356°
2026-04-29 20:48 -9.54107 -77.34445 34225 ft 481 kts 356°
2026-04-29 20:48 -9.47424 -77.34770 34230 ft 481 kts 356°
2026-04-29 20:49 -9.40732 -77.35095 34231 ft 482 kts 356°
2026-04-29 20:49 -9.34024 -77.35421 34228 ft 482 kts 356°
2026-04-29 20:50 -9.27350 -77.35745 34220 ft 482 kts 356°
2026-04-29 20:50 -9.20635 -77.36071 34204 ft 483 kts 356°
2026-04-29 20:51 -9.13926 -77.36397 34179 ft 483 kts 356°
2026-04-29 20:51 -9.07216 -77.36722 34183 ft 483 kts 356°
2026-04-29 20:52 -9.00535 -77.37047 34163 ft 483 kts 356°
2026-04-29 20:52 -8.93799 -77.37374 34127 ft 483 kts 356°
2026-04-29 20:53 -8.87095 -77.37692 34146 ft 481 kts 356°
2026-04-29 20:53 -8.80450 -77.38018 34148 ft 480 kts 356°
2026-04-29 20:54 -8.70445 -77.38505 34124 ft 479 kts 356°
2026-04-29 20:55 -8.63779 -77.38827 34116 ft 479 kts 356°
2026-04-29 20:55 -8.57115 -77.39149 34088 ft 479 kts 356°
2026-04-29 20:56 -8.50485 -77.39471 34101 ft 480 kts 356°
2026-04-29 20:56 -8.43810 -77.39792 34094 ft 480 kts 356°
2026-04-29 20:57 -8.37163 -77.40113 34072 ft 480 kts 356°
2026-04-29 20:57 -8.30496 -77.40434 34069 ft 479 kts 356°
2026-04-29 20:58 -8.23839 -77.40757 34071 ft 479 kts 356°
2026-04-29 20:58 -8.17179 -77.41078 34071 ft 478 kts 356°
2026-04-29 20:59 -8.10567 -77.41397 34056 ft 478 kts 356°
2026-04-29 20:59 -8.03910 -77.41720 34055 ft 478 kts 356°
2026-04-29 21:00 -7.97258 -77.42040 34034 ft 479 kts 356°
2026-04-29 21:00 -7.90595 -77.42360 34036 ft 479 kts 356°
2026-04-29 21:01 -7.83931 -77.42682 34025 ft 479 kts 356°
2026-04-29 21:01 -7.77316 -77.43001 34013 ft 479 kts 356°
2026-04-29 21:02 -7.70641 -77.43323 34002 ft 479 kts 356°
2026-04-29 21:02 -7.63976 -77.43644 34001 ft 480 kts 356°
2026-04-29 21:03 -7.57294 -77.43964 33997 ft 481 kts 356°
2026-04-29 21:03 -7.50643 -77.44284 33995 ft 480 kts 356°
2026-04-29 21:04 -7.43958 -77.44606 34000 ft 480 kts 356°
2026-04-29 21:04 -7.37271 -77.44928 33983 ft 481 kts 356°
2026-04-29 21:05 -7.30625 -77.45248 33985 ft 481 kts 356°
2026-04-29 21:05 -7.23934 -77.45570 33998 ft 481 kts 356°
2026-04-29 21:06 -7.17250 -77.45893 33989 ft 481 kts 355°
2026-04-29 21:06 -7.10558 -77.46221 34004 ft 481 kts 355°
2026-04-29 21:07 -7.03926 -77.46546 34003 ft 480 kts 355°
2026-04-29 21:07 -6.98324 -77.46820 34001 ft 480 kts 355°
2026-04-29 21:08 -6.90579 -77.47198 33988 ft 479 kts 355°
2026-04-29 21:08 -6.83917 -77.47523 33989 ft 478 kts 355°
2026-04-29 21:09 -6.77267 -77.47848 33990 ft 478 kts 355°
2026-04-29 21:09 -6.70655 -77.48171 33985 ft 478 kts 355°
2026-04-29 21:10 -6.64008 -77.48494 33981 ft 478 kts 355°
2026-04-29 21:10 -6.57357 -77.48815 33974 ft 478 kts 355°
2026-04-29 21:11 -6.50711 -77.49137 33988 ft 478 kts 355°
2026-04-29 21:11 -6.44072 -77.49459 33985 ft 477 kts 355°
2026-04-29 21:12 -6.37434 -77.49780 33981 ft 477 kts 355°
2026-04-29 21:12 -6.30836 -77.50099 33982 ft 477 kts 355°
2026-04-29 21:13 -6.24188 -77.50422 33989 ft 479 kts 356°
2026-04-29 21:13 -6.17520 -77.50744 33996 ft 480 kts 356°
2026-04-29 21:14 -6.10833 -77.51068 33995 ft 482 kts 356°
2026-04-29 21:14 -6.05259 -77.51337 33986 ft 483 kts 356°
2026-04-29 21:15 -5.98540 -77.51661 33994 ft 483 kts 356°
2026-04-29 21:15 -5.91825 -77.51982 33977 ft 483 kts 356°
2026-04-29 21:16 -5.85110 -77.52300 34002 ft 482 kts 356°
2026-04-29 21:16 -5.78405 -77.52619 33985 ft 482 kts 356°
2026-04-29 21:17 -5.70616 -77.52990 33987 ft 481 kts 356°
2026-04-29 21:17 -5.65046 -77.53255 33964 ft 481 kts 356°
2026-04-29 21:18 -5.58357 -77.53573 33965 ft 480 kts 356°
2026-04-29 21:18 -5.51683 -77.53891 33974 ft 480 kts 356°
2026-04-29 21:19 -5.45016 -77.54209 33942 ft 479 kts 356°
2026-04-29 21:19 -5.38351 -77.54526 33941 ft 479 kts 356°
2026-04-29 21:20 -5.31732 -77.54841 33930 ft 478 kts 356°
2026-04-29 21:20 -5.25084 -77.55157 33934 ft 478 kts 356°
2026-04-29 21:21 -5.18420 -77.55473 33910 ft 478 kts 356°
2026-04-29 21:21 -5.11777 -77.55789 33907 ft 478 kts 356°
2026-04-29 21:22 -5.05116 -77.56106 33874 ft 479 kts 356°
2026-04-29 21:22 -4.98505 -77.56420 33882 ft 479 kts 356°
2026-04-29 21:23 -4.91849 -77.56735 33886 ft 479 kts 356°
2026-04-29 21:23 -4.85214 -77.57050 33859 ft 479 kts 356°
2026-04-29 21:24 -4.78674 -77.57361 33847 ft 465 kts 356°
2026-04-29 21:24 -4.72295 -77.57664 33840 ft 456 kts 356°
2026-04-29 21:25 -4.66013 -77.57962 33847 ft 449 kts 356°
2026-04-29 21:25 -4.59809 -77.58256 33832 ft 443 kts 356°
2026-04-29 21:26 -4.53680 -77.58547 33841 ft 438 kts 356°
2026-04-29 21:26 -4.47649 -77.58833 33836 ft 434 kts 356°
2026-04-29 21:27 -4.41625 -77.59119 33831 ft 431 kts 356°
2026-04-29 21:27 -4.35646 -77.59404 33841 ft 429 kts 355°
2026-04-29 21:28 -4.29690 -77.59686 33836 ft 427 kts 355°
2026-04-29 21:28 -4.23810 -77.59964 33838 ft 425 kts 355°
2026-04-29 21:29 -4.17916 -77.60243 33833 ft 423 kts 355°
2026-04-29 21:29 -4.12040 -77.60522 33831 ft 421 kts 355°
2026-04-29 21:30 -4.06193 -77.60799 33833 ft 420 kts 355°
2026-04-29 21:30 -4.00368 -77.61075 33856 ft 418 kts 355°
2026-04-29 21:31 -3.94556 -77.61350 33845 ft 417 kts 355°
2026-04-29 21:31 -3.88801 -77.61623 33848 ft 416 kts 355°
2026-04-29 21:32 -3.83021 -77.61897 33848 ft 415 kts 355°
2026-04-29 21:32 -3.77252 -77.62170 33848 ft 414 kts 355°
2026-04-29 21:33 -3.71490 -77.62442 33866 ft 414 kts 355°
2026-04-29 21:33 -3.65780 -77.62713 33872 ft 413 kts 355°
2026-04-29 21:34 -3.60027 -77.62986 33872 ft 413 kts 355°
2026-04-29 21:34 -3.54283 -77.63258 33877 ft 413 kts 355°
2026-04-29 21:35 -3.48534 -77.63530 33885 ft 412 kts 355°
2026-04-29 21:35 -3.42804 -77.63801 33863 ft 412 kts 355°
2026-04-29 21:36 -3.37077 -77.64072 33864 ft 412 kts 355°
2026-04-29 21:36 -3.31391 -77.64341 33864 ft 411 kts 355°
2026-04-29 21:37 -3.25671 -77.64611 33844 ft 411 kts 355°
2026-04-29 21:37 -3.19935 -77.64883 33861 ft 411 kts 355°
2026-04-29 21:38 -3.14222 -77.65153 33847 ft 411 kts 355°
2026-04-29 21:38 -3.08514 -77.65423 33833 ft 410 kts 355°
2026-04-29 21:39 -3.02840 -77.65691 33838 ft 410 kts 355°
2026-04-29 21:39 -2.97144 -77.65961 33831 ft 410 kts 356°
2026-04-29 21:40 -2.91439 -77.66244 33836 ft 410 kts 355°
2026-04-29 21:40 -2.85746 -77.66578 33866 ft 410 kts 355°
2026-04-29 21:41 -2.80050 -77.66918 33864 ft 410 kts 355°
2026-04-29 21:41 -2.74354 -77.67255 33875 ft 409 kts 355°
2026-04-29 21:42 -2.68696 -77.67585 33862 ft 410 kts 355°
2026-04-29 21:42 -2.62993 -77.67918 33868 ft 410 kts 355°
2026-04-29 21:43 -2.57295 -77.68250 33879 ft 409 kts 355°
2026-04-29 21:43 -2.51636 -77.68579 33891 ft 410 kts 355°
2026-04-29 21:44 -2.45936 -77.68912 33875 ft 411 kts 355°
2026-04-29 21:44 -2.40232 -77.69243 33889 ft 410 kts 355°
2026-04-29 21:45 -2.34529 -77.69575 33885 ft 410 kts 355°
2026-04-29 21:45 -2.28808 -77.69909 33902 ft 412 kts 355°
2026-04-29 21:46 -2.23074 -77.70242 33911 ft 412 kts 355°
2026-04-29 21:46 -2.17374 -77.70573 33898 ft 412 kts 355°
2026-04-29 21:47 -2.11645 -77.70908 33883 ft 412 kts 355°
2026-04-29 21:47 -2.05912 -77.71241 33891 ft 412 kts 355°
2026-04-29 21:48 -2.00180 -77.71575 33884 ft 412 kts 355°
2026-04-29 21:48 -1.94489 -77.71906 33893 ft 412 kts 355°
2026-04-29 21:49 -1.88765 -77.72240 33889 ft 411 kts 355°
2026-04-29 21:49 -1.83043 -77.72572 33878 ft 411 kts 355°
2026-04-29 21:50 -1.77327 -77.72904 33890 ft 411 kts 355°
2026-04-29 21:50 -1.71601 -77.73238 33873 ft 412 kts 355°
2026-04-29 21:51 -1.65921 -77.73568 33885 ft 412 kts 355°
2026-04-29 21:51 -1.57341 -77.74067 33872 ft 412 kts 355°
2026-04-29 21:52 -1.51613 -77.74401 33880 ft 412 kts 355°
2026-04-29 21:52 -1.45891 -77.74734 33874 ft 412 kts 356°
2026-04-29 21:53 -1.40162 -77.75067 33879 ft 412 kts 356°
2026-04-29 21:53 -1.34444 -77.75399 33880 ft 412 kts 356°
2026-04-29 21:54 -1.28711 -77.75733 33877 ft 412 kts 356°
2026-04-29 21:54 -1.23019 -77.76063 33872 ft 413 kts 356°
2026-04-29 21:55 -1.17248 -77.76399 33883 ft 413 kts 356°
2026-04-29 21:55 -1.11544 -77.76731 33870 ft 413 kts 356°
2026-04-29 21:56 -1.05800 -77.77065 33883 ft 413 kts 356°
2026-04-29 21:56 -1.00060 -77.77399 33884 ft 413 kts 356°
2026-04-29 21:57 -0.94303 -77.77733 33890 ft 414 kts 356°
2026-04-29 21:57 -0.88559 -77.78067 33926 ft 414 kts 356°
2026-04-29 21:58 -0.82837 -77.78400 33950 ft 414 kts 356°
2026-04-29 21:58 -0.77073 -77.78735 33991 ft 414 kts 356°
2026-04-29 21:59 -0.71298 -77.79071 34036 ft 415 kts 356°
2026-04-29 21:59 -0.65529 -77.79406 34046 ft 415 kts 356°
2026-04-29 22:00 -0.59785 -77.79740 34049 ft 416 kts 356°
2026-04-29 22:00 -0.54015 -77.80076 34110 ft 422 kts 356°
2026-04-29 22:01 -0.48033 -77.80424 34106 ft 441 kts 356°
2026-04-29 22:01 -0.41776 -77.80790 34141 ft 458 kts 355°
2026-04-29 22:02 -0.35290 -77.81177 34185 ft 475 kts 356°
2026-04-29 22:02 -0.29733 -77.81510 34197 ft 486 kts 356°
2026-04-29 22:03 -0.21785 -77.81985 34185 ft 497 kts 356°
2026-04-29 22:03 -0.14883 -77.82394 34179 ft 498 kts 356°
2026-04-29 22:04 -0.09135 -77.82736 34170 ft 497 kts 356°
2026-04-29 22:04 -0.02222 -77.83148 34167 ft 496 kts 356°
2026-04-29 22:05 0.04677 -77.83559 34166 ft 497 kts 356°
2026-04-29 22:06 0.15075 -77.84179 34135 ft 500 kts 356°
2026-04-29 22:06 0.22033 -77.84593 34135 ft 501 kts 356°
2026-04-29 22:07 0.28965 -77.85005 34131 ft 502 kts 356°
2026-04-29 22:07 0.35940 -77.85421 34099 ft 502 kts 356°
2026-04-29 22:08 0.42929 -77.85838 34106 ft 503 kts 355°
2026-04-29 22:08 0.49943 -77.86255 34086 ft 505 kts 355°
2026-04-29 22:09 0.56922 -77.86672 34086 ft 506 kts 355°
2026-04-29 22:09 0.63957 -77.87090 34055 ft 506 kts 356°
2026-04-29 22:10 0.70988 -77.87510 34053 ft 506 kts 355°
2026-04-29 22:10 0.78020 -77.87927 34029 ft 505 kts 354°
2026-04-29 22:11 0.85036 -77.88338 34042 ft 505 kts 355°
2026-04-29 22:11 0.92063 -77.88723 33999 ft 505 kts 355°
2026-04-29 22:12 0.99045 -77.89100 34006 ft 505 kts 355°
2026-04-29 22:12 1.06076 -77.89482 33969 ft 505 kts 355°
2026-04-29 22:13 1.13103 -77.89868 33956 ft 506 kts 355°
2026-04-29 22:13 1.20151 -77.90255 33942 ft 506 kts 355°
2026-04-29 22:14 1.27152 -77.90641 33934 ft 506 kts 355°
2026-04-29 22:14 1.34210 -77.91030 33950 ft 506 kts 355°
2026-04-29 22:15 1.41245 -77.91416 33905 ft 506 kts 355°
2026-04-29 22:15 1.48271 -77.91801 33907 ft 505 kts 355°
2026-04-29 22:16 1.55258 -77.92185 33892 ft 506 kts 355°
2026-04-29 22:16 1.62299 -77.92573 33889 ft 506 kts 355°
2026-04-29 22:17 1.69335 -77.92959 33887 ft 507 kts 355°
2026-04-29 22:17 1.76402 -77.93349 33860 ft 508 kts 355°
2026-04-29 22:18 1.83450 -77.93735 33871 ft 507 kts 355°
2026-04-29 22:18 1.90460 -77.94121 33866 ft 507 kts 355°
2026-04-29 22:19 1.97512 -77.94508 33867 ft 507 kts 355°
2026-04-29 22:19 2.04581 -77.94903 33853 ft 509 kts 355°
2026-04-29 22:20 2.11666 -77.95289 33841 ft 510 kts 355°
2026-04-29 22:20 2.18749 -77.95675 33860 ft 508 kts 355°
2026-04-29 22:21 2.25848 -77.96068 33827 ft 516 kts 355°
2026-04-29 22:21 2.33098 -77.96468 33831 ft 527 kts 355°
2026-04-29 22:22 2.40398 -77.96869 33809 ft 528 kts 355°
2026-04-29 22:22 2.47732 -77.97272 33810 ft 527 kts 355°
2026-04-29 22:23 2.55062 -77.97674 33802 ft 526 kts 355°
2026-04-29 22:23 2.62368 -77.98077 33798 ft 526 kts 355°
2026-04-29 22:24 2.69681 -77.98479 33805 ft 526 kts 355°
2026-04-29 22:24 2.77001 -77.98883 33805 ft 526 kts 355°
2026-04-29 22:25 2.84277 -77.99283 33803 ft 527 kts 355°
2026-04-29 22:25 2.91607 -77.99687 33804 ft 527 kts 355°
2026-04-29 22:26 2.98945 -78.00091 33801 ft 528 kts 355°
2026-04-29 22:26 3.06297 -78.00496 33809 ft 528 kts 355°
2026-04-29 22:27 3.13641 -78.00900 33797 ft 528 kts 355°
2026-04-29 22:27 3.20934 -78.01302 33801 ft 528 kts 355°
2026-04-29 22:28 3.28265 -78.01706 33806 ft 527 kts 355°
2026-04-29 22:28 3.35601 -78.02110 33800 ft 527 kts 355°
2026-04-29 22:29 3.42918 -78.02514 33802 ft 527 kts 355°
2026-04-29 22:29 3.50249 -78.02918 33801 ft 527 kts 355°
2026-04-29 22:30 3.57540 -78.03320 33799 ft 527 kts 355°
2026-04-29 22:30 3.64862 -78.03724 33799 ft 527 kts 355°
2026-04-29 22:31 3.72152 -78.04126 33809 ft 528 kts 355°
2026-04-29 22:31 3.79488 -78.04530 33797 ft 527 kts 355°
2026-04-29 22:32 3.86813 -78.04934 33797 ft 525 kts 355°
2026-04-29 22:32 3.94102 -78.05337 33794 ft 524 kts 355°
2026-04-29 22:33 4.01372 -78.05738 33789 ft 523 kts 355°
2026-04-29 22:33 4.08597 -78.06137 33795 ft 522 kts 355°
2026-04-29 22:34 4.15855 -78.06537 33799 ft 522 kts 355°
2026-04-29 22:34 4.23112 -78.06938 33794 ft 522 kts 355°
2026-04-29 22:35 4.30322 -78.07337 33798 ft 522 kts 355°
2026-04-29 22:35 4.37578 -78.07738 33795 ft 522 kts 355°
2026-04-29 22:36 4.44838 -78.08139 33801 ft 523 kts 355°
2026-04-29 22:36 4.52108 -78.08540 33796 ft 522 kts 355°
2026-04-29 22:37 4.59376 -78.08942 33795 ft 522 kts 355°
2026-04-29 22:37 4.66632 -78.09343 33796 ft 522 kts 355°
2026-04-29 22:38 4.73844 -78.09742 33798 ft 522 kts 355°
2026-04-29 22:38 4.81094 -78.10143 33792 ft 522 kts 355°
2026-04-29 22:39 4.88342 -78.10544 33797 ft 522 kts 354°
2026-04-29 22:39 4.95598 -78.10946 33795 ft 522 kts 354°
2026-04-29 22:40 5.02855 -78.11347 33790 ft 522 kts 355°
2026-04-29 22:40 5.10057 -78.11746 33797 ft 522 kts 355°
2026-04-29 22:41 5.17310 -78.12148 33792 ft 522 kts 354°
2026-04-29 22:41 5.24572 -78.12550 33797 ft 522 kts 355°
2026-04-29 22:42 5.31812 -78.12951 33796 ft 521 kts 355°
2026-04-29 22:42 5.39068 -78.13353 33795 ft 521 kts 355°
2026-04-29 22:43 5.46251 -78.13751 33793 ft 520 kts 355°
2026-04-29 22:43 5.53492 -78.14152 33794 ft 520 kts 355°
2026-04-29 22:44 5.60721 -78.14553 33801 ft 519 kts 355°
2026-04-29 22:44 5.67944 -78.14954 33795 ft 519 kts 355°
2026-04-29 22:45 5.75114 -78.15352 33794 ft 519 kts 355°
2026-04-29 22:45 5.82318 -78.15751 33793 ft 518 kts 355°
2026-04-29 22:46 5.89502 -78.16150 33794 ft 518 kts 355°
2026-04-29 22:46 5.96700 -78.16550 33795 ft 518 kts 355°
2026-04-29 22:47 6.03896 -78.16949 33797 ft 517 kts 355°
2026-04-29 22:47 6.11077 -78.17348 33795 ft 516 kts 355°
2026-04-29 22:48 6.18244 -78.17746 33799 ft 515 kts 355°
2026-04-29 22:48 6.25346 -78.18141 33795 ft 514 kts 355°
2026-04-29 22:49 6.32498 -78.18539 33797 ft 514 kts 355°
2026-04-29 22:49 6.39649 -78.18937 33797 ft 514 kts 355°
2026-04-29 22:50 6.46813 -78.19335 33795 ft 515 kts 355°
2026-04-29 22:50 6.53920 -78.19730 33798 ft 515 kts 355°
2026-04-29 22:51 6.61080 -78.20129 33797 ft 515 kts 355°
2026-04-29 22:51 6.71836 -78.20728 33799 ft 516 kts 355°
2026-04-29 22:52 6.79019 -78.21128 33799 ft 517 kts 355°
2026-04-29 22:52 6.86207 -78.21373 33798 ft 518 kts
2026-04-29 22:53 6.93364 -78.21027 33802 ft 518 kts
2026-04-29 22:53 7.00564 -78.20628 33801 ft 518 kts
2026-04-29 22:54 7.06601 -78.20316 33801 ft 518 kts
2026-04-29 22:54 7.13763 -78.19970 33799 ft 518 kts
2026-04-29 22:55 7.20979 -78.19629 33801 ft 518 kts
2026-04-29 22:55 7.28183 -78.19287 33799 ft 517 kts
2026-04-29 22:56 7.35335 -78.18946 33804 ft 517 kts
2026-04-29 22:56 7.42522 -78.18602 33807 ft 517 kts
2026-04-29 22:57 7.50929 -78.18200 33807 ft 518 kts
2026-04-29 22:57 7.56921 -78.17912 33810 ft 519 kts
2026-04-29 22:58 7.64148 -78.17567 33819 ft 520 kts
2026-04-29 22:58 7.71388 -78.17221 33817 ft 521 kts
2026-04-29 22:59 7.78589 -78.16876 33816 ft 521 kts
2026-04-29 22:59 7.85842 -78.16528 33812 ft 523 kts
2026-04-29 23:00 7.93115 -78.16179 33821 ft 524 kts
2026-04-29 23:00 8.00420 -78.15829 33815 ft 525 kts
2026-04-29 23:01 8.07735 -78.15478 33808 ft 526 kts
2026-04-29 23:01 8.14993 -78.15131 33812 ft 525 kts
2026-04-29 23:02 8.22302 -78.14778 33813 ft 526 kts
2026-04-29 23:02 8.29620 -78.14428 33814 ft 527 kts
2026-04-29 23:03 8.36951 -78.14075 33802 ft 527 kts
2026-04-29 23:03 8.44280 -78.14015 33802 ft 526 kts 355°
2026-04-29 23:04 8.51580 -78.14470 33813 ft 526 kts 355°
2026-04-29 23:04 8.58895 -78.14952 33806 ft 527 kts 355°
2026-04-29 23:05 8.66166 -78.15397 33812 ft 527 kts 355°
2026-04-29 23:05 8.73504 -78.15824 33815 ft 528 kts 355°
2026-04-29 23:06 8.80847 -78.16249 33811 ft 528 kts 355°
2026-04-29 23:06 8.88192 -78.16676 33820 ft 528 kts 355°
2026-04-29 23:07 8.95544 -78.17105 33811 ft 529 kts 355°
2026-04-29 23:07 9.02853 -78.17533 33833 ft 530 kts 355°
2026-04-29 23:08 9.10229 -78.17965 33835 ft 531 kts 355°
2026-04-29 23:08 9.17635 -78.18398 33820 ft 532 kts 355°
2026-04-29 23:09 9.25040 -78.18831 33820 ft 532 kts 355°
2026-04-29 23:09 9.32397 -78.19261 33831 ft 532 kts 354°
2026-04-29 23:10 9.39746 -78.19692 33824 ft 532 kts 354°
2026-04-29 23:10 9.47135 -78.20125 33824 ft 532 kts 354°
2026-04-29 23:11 9.54530 -78.20559 33817 ft 532 kts 354°
2026-04-29 23:11 9.61926 -78.20993 33817 ft 532 kts 354°
2026-04-29 23:12 9.69309 -78.21426 33819 ft 531 kts 354°
2026-04-29 23:12 9.76688 -78.21859 33817 ft 531 kts 354°
2026-04-29 23:13 9.84027 -78.22290 33814 ft 530 kts 354°
2026-04-29 23:13 9.91402 -78.22723 33817 ft 530 kts 354°
2026-04-29 23:14 9.98772 -78.23157 33822 ft 530 kts 354°
2026-04-29 23:14 10.06145 -78.23591 33820 ft 530 kts 354°
2026-04-29 23:15 10.13472 -78.24022 33818 ft 530 kts 354°
2026-04-29 23:15 10.20852 -78.24456 33820 ft 531 kts 354°
2026-04-29 23:16 10.28227 -78.24891 33823 ft 531 kts 354°
2026-04-29 23:16 10.35624 -78.25328 33821 ft 531 kts 354°
2026-04-29 23:17 10.42967 -78.25761 33826 ft 532 kts 354°
2026-04-29 23:17 10.50357 -78.26198 33822 ft 532 kts 354°
2026-04-29 23:18 10.57756 -78.26635 33823 ft 532 kts 354°
2026-04-29 23:18 10.65148 -78.27072 33827 ft 532 kts 354°
2026-04-29 23:19 10.72540 -78.27510 33829 ft 532 kts 354°
2026-04-29 23:19 10.79942 -78.27948 33830 ft 532 kts 354°
2026-04-29 23:20 10.87302 -78.28383 33831 ft 532 kts 354°
2026-04-29 23:20 10.94701 -78.28822 33830 ft 532 kts 354°
2026-04-29 23:21 11.02099 -78.29260 33832 ft 532 kts 354°
2026-04-29 23:21 11.09487 -78.29698 33838 ft 532 kts 353°
2026-04-29 23:22 11.16880 -78.30137 33836 ft 532 kts 354°
2026-04-29 23:22 11.24279 -78.30576 33835 ft 533 kts 353°
2026-04-29 23:23 11.31640 -78.31013 33835 ft 533 kts 354°
2026-04-29 23:23 11.39054 -78.31454 33838 ft 533 kts 353°
2026-04-29 23:24 11.46461 -78.31894 33844 ft 533 kts 353°
2026-04-29 23:24 11.53879 -78.32335 33840 ft 533 kts 353°
2026-04-29 23:25 11.61288 -78.32776 33842 ft 533 kts 353°
2026-04-29 23:25 11.68712 -78.33218 33840 ft 533 kts 353°
2026-04-29 23:26 11.76067 -78.33657 33841 ft 533 kts 353°
2026-04-29 23:26 11.83470 -78.34098 33847 ft 533 kts 353°
2026-04-29 23:27 11.90872 -78.34539 33847 ft 533 kts 353°
2026-04-29 23:27 11.98270 -78.34981 33848 ft 532 kts 353°
2026-04-29 23:28 12.05674 -78.35423 33846 ft 532 kts 353°
2026-04-29 23:28 12.13026 -78.35862 33851 ft 532 kts 353°
2026-04-29 23:29 12.20434 -78.36305 33855 ft 532 kts 352°
2026-04-29 23:29 12.27823 -78.36749 33855 ft 532 kts 352°
2026-04-29 23:30 12.35217 -78.37194 33854 ft 531 kts 352°
2026-04-29 23:30 12.42552 -78.37636 33861 ft 532 kts 352°
2026-04-29 23:31 12.49947 -78.38081 33862 ft 532 kts 352°
2026-04-29 23:31 12.57352 -78.38527 33859 ft 532 kts 352°
2026-04-29 23:32 12.64740 -78.38973 33859 ft 532 kts 352°
2026-04-29 23:32 12.72137 -78.39419 33866 ft 532 kts 352°
2026-04-29 23:33 12.79484 -78.39862 33864 ft 532 kts 352°
2026-04-29 23:33 12.86879 -78.40309 33870 ft 532 kts 352°
2026-04-29 23:34 12.94266 -78.40755 33866 ft 532 kts 352°
2026-04-29 23:34 13.01663 -78.41203 33873 ft 532 kts 352°
2026-04-29 23:35 13.09019 -78.41647 33873 ft 532 kts 352°
2026-04-29 23:35 13.16408 -78.42095 33877 ft 532 kts 352°
2026-04-29 23:36 13.23797 -78.42542 33887 ft 532 kts 351°
2026-04-29 23:36 13.31194 -78.42990 33878 ft 532 kts 351°
2026-04-29 23:37 13.38580 -78.43438 33885 ft 531 kts 351°
2026-04-29 23:37 13.45921 -78.43884 33885 ft 531 kts 351°
2026-04-29 23:38 13.53307 -78.44332 33881 ft 531 kts 351°
2026-04-29 23:38 13.60680 -78.44780 33895 ft 530 kts 351°
2026-04-29 23:39 13.68055 -78.45228 33880 ft 530 kts 351°
2026-04-29 23:39 13.75414 -78.45676 33882 ft 529 kts 351°
2026-04-29 23:40 13.82723 -78.46121 33888 ft 529 kts 351°
2026-04-29 23:40 13.90086 -78.46569 33887 ft 529 kts 351°
2026-04-29 23:41 13.97430 -78.47017 33895 ft 528 kts 351°
2026-04-29 23:41 14.04770 -78.47465 33896 ft 528 kts 351°
2026-04-29 23:42 14.12075 -78.47910 33901 ft 528 kts 351°
2026-04-29 23:42 14.19407 -78.48358 33900 ft 528 kts 351°
2026-04-29 23:43 14.25550 -78.48734 33897 ft 528 kts 351°
2026-04-29 23:43 14.32832 -78.49179 33892 ft 528 kts 351°
2026-04-29 23:44 14.40164 -78.49628 33899 ft 528 kts 351°
2026-04-29 23:44 14.47513 -78.50077 33910 ft 528 kts 351°
2026-04-29 23:45 14.54851 -78.50527 33915 ft 528 kts 351°
2026-04-29 23:45 14.62186 -78.50977 33908 ft 528 kts 351°
2026-04-29 23:46 14.69482 -78.51424 33909 ft 527 kts 351°
2026-04-29 23:46 14.76794 -78.51872 33907 ft 525 kts 351°
2026-04-29 23:47 14.84078 -78.52319 33914 ft 523 kts 351°
2026-04-29 23:47 14.91334 -78.52766 33915 ft 522 kts 351°
2026-04-29 23:48 14.98582 -78.53212 33916 ft 522 kts 351°
2026-04-29 23:48 15.05789 -78.53537 33917 ft 522 kts 353°
2026-04-29 23:49 15.13049 -78.53654 33921 ft 521 kts 354°
2026-04-29 23:49 15.20300 -78.53759 33923 ft 520 kts 354°
2026-04-29 23:50 15.27528 -78.53899 33922 ft 519 kts 353°
2026-04-29 23:51 15.38302 -78.54142 34174 ft 523 kts 353°
2026-04-29 23:51 15.41937 -78.54224 34549 ft 522 kts 353°
2026-04-29 23:51 15.45566 -78.54304 34958 ft 519 kts 353°
2026-04-29 23:51 15.49169 -78.54383 35368 ft 517 kts 353°
2026-04-29 23:52 15.52756 -78.54461 35756 ft 515 kts 353°
2026-04-29 23:52 15.56340 -78.54540 35962 ft 517 kts 353°
2026-04-29 23:52 15.59949 -78.54623 35933 ft 519 kts 353°
2026-04-29 23:53 15.67162 -78.54782 35924 ft 515 kts 353°
2026-04-29 23:53 15.74315 -78.54938 35936 ft 512 kts 353°
2026-04-29 23:54 15.81395 -78.55096 35940 ft 511 kts 353°
2026-04-29 23:54 15.88504 -78.55255 35939 ft 511 kts 353°
2026-04-29 23:55 15.95618 -78.55414 35936 ft 512 kts 353°
2026-04-29 23:55 16.02743 -78.55573 35938 ft 513 kts 353°
2026-04-29 23:56 16.09884 -78.55731 35940 ft 514 kts 353°
2026-04-29 23:56 16.17046 -78.55891 35945 ft 514 kts 353°
2026-04-29 23:57 16.24161 -78.56049 35948 ft 515 kts 353°
2026-04-29 23:57 16.31335 -78.56217 35932 ft 515 kts 352°
2026-04-29 23:58 16.38497 -78.56422 35930 ft 515 kts 352°
2026-04-29 23:58 16.42085 -78.56511 35946 ft 515 kts 352°